Regional Weather Roundup
Issued by NWS Goodland, KS

Home | Current Version | Previous Version | Graphics & Text | Print | Product List | Glossary On
Versions: 1 2 3 4 5 6 7 8 9 10 11 12 13 14 15 16 17 18 19 20 21 22 23 24 25 26 27 28 29 30 31 32 33 34 35 36 37 38 39 40 41 42 43 44 45 46 47 48 49 50
000
ASUS43 KGLD 211859
RWRGLD

GOODLAND FORECAST AREA HOURLY WEATHER ROUNDUP
NATIONAL WEATHER SERVICE GOODLAND KS
100 PM MDT TUE OCT 21 2014

...OFFICIAL OBSERVATIONS...

CITY           SKY/WX    TMP DP  RH WIND       PRES   REMARKS
GOODLAND KS    SUNNY     73  54  51 S20       30.00F
HILL CITY KS   SUNNY     77  58  51 MISG      30.02F
IMPERIAL NEB   SUNNY     74  54  49 S17G28    29.95F
MCCOOK NEB     SUNNY     78  56  46 S18G26    29.98F
AKRON CO       SUNNY     78  36  21 S17G24    29.95F
BURLINGTON CO  SUNNY     76  45  33 S22G28    30.00F
LIMON CO       SUNNY     71  38  29 S13G22    30.02F
$$

...UNOFFICIAL OBSERVATIONS...

CITY           SKY/WX    TMP DP  RH WIND       PRES   REMARKS
COLBY KS       SUNNY     75  57  53 SE16G22   30.01F
GOVE KS          N/A     75  32  20 MISG        N/A
NORTON KS      SUNNY     75  54  46 SE16      30.00F
SHARON SPRINGS   N/A     76  55  48 S20         N/A
TRENTON NEB      N/A     78  32  18 S18         N/A
KIT CARSON CO    N/A     74  47  37 N12G18      N/A
YUMA CO          N/A     77  38  24 SW23        N/A
$$



USA.gov is the U.S. government's official web portal to all federal, state and local government web resources and services.